673  
ASUS43 KLOT 271008  
RWRIL  
 
ILLINOIS REGIONAL WEATHER ROUNDUP  
NATIONAL WEATHER SERVICE CHICAGO/ROMEOVILLE IL  
500 AM CDT MON MAR 27 2017  
 
NOTE: "FAIR" INDICATES FEW OR NO CLOUDS BELOW 12,000 FEET WITH NO  
SIGNIFICANT WEATHER AND/OR S TO VISIBILITY
.  
 
* THESE STATIONS ARE NOT UNDER NWS QUALITY CONTROL. THEY ALSO MAY NOT  
REPORT WEATHER SUCH AS PRECIPITATION OR FOG.
 
 
ILZ001-002-007-009-015-016-024-271100-  
NORTHWEST ILLINOIS  
 
CITY SKY/WX TMP DP RH WIND PRES REMARKS
 
MOLINE CLOUDY 48 45 89 W3 29.89F FOG  
STERLING* CLOUDY 47 46 97 W5 29.90F FOG  
SAVANNA* CLOUDY 46 45 97 CALM 29.90F FOG  

 
 
ILZ003-004-008-010-011-017-018-271100-  
NORTH CENTRAL ILLINOIS  
 
CITY SKY/WX TMP DP RH WIND PRES REMARKS
 
ROCKFORD CLOUDY 46 44 93 CALM 29.92S  
FREEPORT* FOG 44 43 99 CALM 29.93R VSB 1/2  
ROCHELLE* CLOUDY 46 46 97 NW3 29.90F  
DE KALB* CLOUDY 46 46 98 W6 29.90S FOG  
PERU* CLOUDY 47 46 95 CALM 29.90F FOG  

 
 
ILZ005-006-012>014-019>023-271100-  
NORTHEAST ILLINOIS  
 
CITY SKY/WX TMP DP RH WIND PRES REMARKS
 
CHICAGO-OHARE CLOUDY 50 48 93 NW6 29.89R FOG  
CHICAGO-MIDWAY CLOUDY 50 49 96 SW9 29.90R FOG  
AURORA CLOUDY 49 47 93 W8 29.90S FOG  
LANSING* CLOUDY 49 49 99 W13 29.91S  
JOLIET* CLOUDY 50 49 97 W5 29.91S FOG  
WAUKEGAN CLOUDY 45 44 97 W3 29.89R  
DUPAGE AIRPORT LGT RAIN 49 49 100 W8 29.89R FOG  
KANKAKEE* CLOUDY 49 48 97 CALM 29.92F  
WHEELING CLOUDY 48 48 100 N5 29.90S  
MORRIS* CLOUDY 48 47 97 CALM 29.90F FOG  
ROMEOVILLE* CLOUDY 48 48 100 W7 29.90F FOG  

 
 
LMZ740>746-271100-  
SOUTHERN LAKE MICHIGAN  
 
STATION/POSITION SKY/WX TEMP WIND PRES VSBY WAVE
 
AIR SEA DIR/SP/G HT/PER  
(F) (DEG/KT/KT) (MB) (MI) (FT/S)  
HARRISON CRIB 41 30/ 6/ 7 N/A  
BURNHAM HARBOR 41 40/ 4/ 7 N/A  
CALUMET HARBOR 50 220/ 8/ 12 1012.0R  
BURNS HARBOR 51 220/ 9/ 13 1013.2R  
MICHIGAN CITY 49 220/ 7/ 8 N/A  

 
 
ILZ025>027-034>036-040-047-049-050-058-095>099-271100-  
WEST-CENTRAL ILLINOIS  
 
CITY SKY/WX TMP DP RH WIND PRES REMARKS
 
QUINCY CLOUDY 47 45 93 E3 29.89R  
GALESBURG* CLOUDY 45 45 100 CALM 29.89S FOG  
MACOMB* FOG 46 46 100 CALM 29.92R VSB 1/2  
JACKSONVILLE* CLOUDY 46 45 97 E3 29.90R FOG  
PITTSFIELD* CLOUDY 48 46 93 E3 29.90F  

 
 
ILZ028>032-037-038-041>044-048-051>054-059>061-271100-  
CENTRAL ILLINOIS  
 
CITY SKY/WX TMP DP RH WIND PRES REMARKS
 
PONTIAC CLOUDY 50 49 98 SW3 29.92F  
BLOOMINGTON CLOUDY 47 46 97 N3 29.91S  
DECATUR CLEAR 42 41 96 CALM 29.91F FOG  
PEORIA CLOUDY 49 47 93 N3 29.89F  
LACON* CLOUDY 47 46 97 CALM 29.89F FOG  
LINCOLN* CLOUDY 46 46 100 CALM 29.92R FOG  
SPRINGFIELD CLOUDY 46 44 93 E3 29.91R FOG  
TAYLORVILLE MOCLDY 45 45 100 CALM 29.92R FOG  

 
 
ILZ033-039-045-046-055>057-062-063-271100-  
EAST-CENTRAL ILLINOIS  
 
CITY SKY/WX TMP DP RH WIND PRES REMARKS
 
CHAMPAIGN PTCLDY 46 43 89 CALM 29.91F  
RANTOUL* CLOUDY 50 49 97 CALM 29.91F  
MATTOON CLEAR 47 47 100 S3 29.92R FOG  
PARIS* CLOUDY 46 46 100 E3 29.92F FOG  

 
 
ILZ079-100>102-271100-  
SOUTHWEST ILLINOIS  
 
CITY SKY/WX TMP DP RH WIND PRES REMARKS
 
ALTON CLOUDY 48 47 98 NE3 29.88F FOG  
BELLEVILLE MOCLDY 48 48 100 NE6 29.85F  
CAHOKIA* MOCLDY 51 47 86 NE3 29.84F  
SPARTA* CLOUDY 51 47 88 SE8 29.87F  

 
 
ILZ064>066-069>071-074>076-080>082-084>086-088>090-092>094-271100-  
SOUTH-CENTRAL ILLINOIS  
 
CITY SKY/WX TMP DP RH WIND PRES REMARKS
 
CARBONDALE CLOUDY 49 49 100 E6 29.87F  
CAIRO* CLOUDY 54 51 91 E6 29.86F  
EFFINGHAM* CLOUDY 43 43 100 CALM 29.94R FOG  
MARION MOCLDY 52 52 100 SE6 29.90F  
MT. VERNON MOCLDY 46 45 96 CALM 29.90F  
CENTRALIA* MOCLDY 50 48 93 E3 29.89S  
SALEM* CLOUDY 47 45 93 E3 29.90F  
METROPOLIS* MOCLDY 52 50 92 E5 29.89F  

 
 
ILZ067-068-072-073-078-083-087-091-271100-  
SOUTHEAST ILLINOIS  
 
CITY SKY/WX TMP DP RH WIND PRES REMARKS
 
LAWRENCEVILLE PTCLDY 42 42 100 SE3 29.94S FOG  
FLORA* CLOUDY 45 45 97 CALM 29.93R  
FAIRFIELD* CLOUDY 50 47 88 CALM 29.90F  
HARRISBURG* CLOUDY 49 48 93 E3 29.91F  
ROBINSON* FOG 40 40 100 CALM 29.94F VSB 1/2  
CARMI* CLOUDY 44 44 99 CALM 29.92S  

 
 
ABBREVIATIONS USED IN REMARKS  
TC - TEMPERATURE IN CELSIUS  
WCI - WIND CHILL INDEX  
HX - HEAT INDEX  
VSB - VISIBILITY  

 
 
 
 
CLICK HERE TO GO TO PREVIOUS BULLETINS.

The Nexlab IL Page Main Text Page